Time,TemperatureF,DewpointF,PressureIn,WindDirection,WindDirectionDegrees,WindSpeedMPH,WindSpeedGustMPH,Humidity,HourlyPrecipIn,Conditions,Clouds,dailyrainin,SoftwareType,DateUTC
2013-04-27 00:00:00,45.0,36.9,30.44,ENE,72,0.0,0.0,73,0.00,,,0.00,Wunderground v.1.15,2013-04-27 04:00:00,
2013-04-27 00:01:00,45.0,36.9,30.44,ENE,72,0.0,0.0,73,0.00,,,0.00,Wunderground v.1.15,2013-04-27 04:01:00,
2013-04-27 00:06:00,44.7,36.6,30.44,ENE,72,0.0,0.0,73,0.00,,,0.00,Wunderground v.1.15,2013-04-27 04:06:00,
2013-04-27 00:11:00,44.5,36.7,30.44,ENE,72,0.0,0.0,74,0.00,,,0.00,Wunderground v.1.15,2013-04-27 04:11:00,
2013-04-27 00:16:00,44.3,36.5,30.44,ENE,72,0.0,0.0,74,0.00,,,0.00,Wunderground v.1.15,2013-04-27 04:16:00,
2013-04-27 00:21:00,44.1,36.7,30.44,ENE,72,0.0,0.0,75,0.00,,,0.00,Wunderground v.1.15,2013-04-27 04:21:00,
2013-04-27 00:26:00,43.9,36.5,30.44,ENE,72,0.0,0.0,75,0.00,,,0.00,Wunderground v.1.15,2013-04-27 04:26:00,
2013-04-27 00:31:00,43.7,36.6,30.44,ENE,72,0.0,0.0,76,0.00,,,0.00,Wunderground v.1.15,2013-04-27 04:31:00,
2013-04-27 00:36:00,43.5,36.4,30.44,ENE,72,0.0,0.0,76,0.00,,,0.00,Wunderground v.1.15,2013-04-27 04:36:00,
2013-04-27 00:41:00,43.4,36.3,30.44,ENE,72,0.0,0.0,76,0.00,,,0.00,Wunderground v.1.15,2013-04-27 04:41:00,
2013-04-27 00:46:00,43.2,36.1,30.44,ENE,72,0.0,0.0,76,0.00,,,0.00,Wunderground v.1.15,2013-04-27 04:46:00,
2013-04-27 00:51:00,43.0,36.3,30.44,ENE,72,0.0,0.0,77,0.00,,,0.00,Wunderground v.1.15,2013-04-27 04:51:00,
2013-04-27 00:56:00,42.8,36.1,30.44,ENE,72,0.0,0.0,77,0.00,,,0.00,Wunderground v.1.15,2013-04-27 04:56:00,
2013-04-27 01:02:00,42.6,36.2,30.44,ENE,72,0.0,0.0,78,0.00,,,0.00,Wunderground v.1.15,2013-04-27 05:02:00,
2013-04-27 01:03:00,42.6,36.2,30.44,ENE,72,0.0,0.0,78,0.00,,,0.00,Wunderground v.1.15,2013-04-27 05:03:00,
2013-04-27 01:08:00,42.5,36.1,30.44,ENE,72,0.0,0.0,78,0.00,,,0.00,Wunderground v.1.15,2013-04-27 05:08:00,
2013-04-27 01:14:00,42.3,36.3,30.44,ENE,72,0.0,0.0,79,0.00,,,0.00,Wunderground v.1.15,2013-04-27 05:14:00,
2013-04-27 01:19:00,42.2,36.2,30.44,ENE,72,0.0,0.0,79,0.00,,,0.00,Wunderground v.1.15,2013-04-27 05:19:00,
2013-04-27 01:25:00,42.1,36.1,30.44,ENE,72,0.0,0.0,79,0.00,,,0.00,Wunderground v.1.15,2013-04-27 05:25:00,
2013-04-27 01:30:00,42.0,36.0,30.44,ENE,72,0.0,0.0,79,0.00,,,0.00,Wunderground v.1.15,2013-04-27 05:30:00,
2013-04-27 01:36:00,41.9,36.2,30.44,ENE,72,0.0,0.0,80,0.00,,,0.00,Wunderground v.1.15,2013-04-27 05:36:00,
2013-04-27 01:41:00,41.7,36.0,30.44,ENE,72,0.0,0.0,80,0.00,,,0.00,Wunderground v.1.15,2013-04-27 05:41:00,
2013-04-27 01:47:00,41.6,35.9,30.44,ENE,72,0.0,0.0,80,0.00,,,0.00,Wunderground v.1.15,2013-04-27 05:47:00,
2013-04-27 01:53:00,41.4,36.0,30.44,ENE,72,0.0,0.0,81,0.00,,,0.00,Wunderground v.1.15,2013-04-27 05:53:00,
2013-04-27 01:58:00,41.3,35.9,30.44,ENE,72,0.0,0.0,81,0.00,,,0.00,Wunderground v.1.15,2013-04-27 05:58:00,
2013-04-27 02:04:00,41.2,35.8,30.44,ENE,72,0.0,0.0,81,0.00,,,0.00,Wunderground v.1.15,2013-04-27 06:04:00,
2013-04-27 02:09:00,41.1,35.7,30.43,ENE,72,0.0,0.0,81,0.00,,,0.00,Wunderground v.1.15,2013-04-27 06:09:00,
2013-04-27 02:15:00,41.1,36.0,30.43,ENE,72,0.0,0.0,82,0.00,,,0.00,Wunderground v.1.15,2013-04-27 06:15:00,
2013-04-27 02:20:00,40.9,35.8,30.43,ENE,72,0.0,0.0,82,0.00,,,0.00,Wunderground v.1.15,2013-04-27 06:20:00,
2013-04-27 02:26:00,40.8,35.7,30.43,ENE,72,0.0,0.0,82,0.00,,,0.00,Wunderground v.1.15,2013-04-27 06:26:00,
2013-04-27 02:31:00,40.7,35.6,30.43,ENE,72,0.0,0.0,82,0.00,,,0.00,Wunderground v.1.15,2013-04-27 06:31:00,
2013-04-27 02:37:00,40.6,35.5,30.43,ENE,72,0.0,0.0,82,0.00,,,0.00,Wunderground v.1.15,2013-04-27 06:37:00,
2013-04-27 02:42:00,40.5,35.7,30.43,ENE,72,0.0,0.0,83,0.00,,,0.00,Wunderground v.1.15,2013-04-27 06:42:00,
2013-04-27 02:48:00,40.4,35.6,30.43,ENE,72,0.0,0.0,83,0.00,,,0.00,Wunderground v.1.15,2013-04-27 06:48:00,
2013-04-27 02:53:00,40.3,35.5,30.43,ENE,72,0.0,0.0,83,0.00,,,0.00,Wunderground v.1.15,2013-04-27 06:53:00,
2013-04-27 02:59:00,40.2,35.4,30.43,ENE,72,0.0,0.0,83,0.00,,,0.00,Wunderground v.1.15,2013-04-27 06:59:00,
2013-04-27 03:04:00,40.0,35.3,30.43,ENE,72,0.0,0.0,83,0.00,,,0.00,Wunderground v.1.15,2013-04-27 07:04:00,
2013-04-27 03:09:00,40.0,35.3,30.43,ENE,72,0.0,0.0,83,0.00,,,0.00,Wunderground v.1.15,2013-04-27 07:09:00,
2013-04-27 03:14:00,39.8,35.1,30.43,ENE,72,0.0,0.0,83,0.00,,,0.00,Wunderground v.1.15,2013-04-27 07:14:00,
2013-04-27 03:19:00,39.8,35.1,30.43,ENE,72,0.0,0.0,83,0.00,,,0.00,Wunderground v.1.15,2013-04-27 07:19:00,
2013-04-27 03:24:00,39.7,35.3,30.43,ENE,72,0.0,0.0,84,0.00,,,0.00,Wunderground v.1.15,2013-04-27 07:24:00,
2013-04-27 03:29:00,39.6,35.2,30.43,ENE,72,0.0,0.0,84,0.00,,,0.00,Wunderground v.1.15,2013-04-27 07:29:00,
2013-04-27 03:34:00,39.5,35.1,30.43,ENE,72,0.0,0.0,84,0.00,,,0.00,Wunderground v.1.15,2013-04-27 07:34:00,
2013-04-27 03:39:00,39.5,35.1,30.43,ENE,72,0.0,0.0,84,0.00,,,0.00,Wunderground v.1.15,2013-04-27 07:39:00,
2013-04-27 03:44:00,39.4,35.0,30.43,ENE,72,0.0,0.0,84,0.00,,,0.00,Wunderground v.1.15,2013-04-27 07:44:00,
2013-04-27 03:49:00,39.3,34.9,30.43,ENE,72,0.0,0.0,84,0.00,,,0.00,Wunderground v.1.15,2013-04-27 07:49:00,
2013-04-27 03:54:00,39.1,34.7,30.43,ENE,72,0.0,0.0,84,0.00,,,0.00,Wunderground v.1.15,2013-04-27 07:54:00,
2013-04-27 03:59:00,39.0,34.6,30.43,ENE,72,0.0,0.0,84,0.00,,,0.00,Wunderground v.1.15,2013-04-27 07:59:00,
2013-04-27 04:04:00,38.9,34.5,30.43,ENE,72,0.0,0.0,84,0.00,,,0.00,Wunderground v.1.15,2013-04-27 08:04:00,
2013-04-27 04:09:00,38.8,34.4,30.43,ENE,72,0.0,0.0,84,0.00,,,0.00,Wunderground v.1.15,2013-04-27 08:09:00,
2013-04-27 04:14:00,38.7,34.3,30.43,ENE,72,0.0,0.0,84,0.00,,,0.00,Wunderground v.1.15,2013-04-27 08:14:00,
2013-04-27 04:19:00,38.6,34.2,30.43,ENE,72,0.0,0.0,84,0.00,,,0.00,Wunderground v.1.15,2013-04-27 08:19:00,
2013-04-27 04:24:00,38.6,34.5,30.42,ENE,72,0.0,0.0,85,0.00,,,0.00,Wunderground v.1.15,2013-04-27 08:24:00,
2013-04-27 04:29:00,38.5,34.4,30.42,ENE,72,0.0,0.0,85,0.00,,,0.00,Wunderground v.1.15,2013-04-27 08:29:00,
2013-04-27 04:34:00,38.4,34.3,30.42,ENE,72,0.0,0.0,85,0.00,,,0.00,Wunderground v.1.15,2013-04-27 08:34:00,
2013-04-27 04:39:00,38.4,34.3,30.42,ENE,72,0.0,0.0,85,0.00,,,0.00,Wunderground v.1.15,2013-04-27 08:39:00,
2013-04-27 04:44:00,38.3,34.2,30.42,ENE,72,0.0,0.0,85,0.00,,,0.00,Wunderground v.1.15,2013-04-27 08:44:00,
2013-04-27 04:49:00,38.2,34.1,30.42,ENE,72,0.0,0.0,85,0.00,,,0.00,Wunderground v.1.15,2013-04-27 08:49:00,
2013-04-27 04:54:00,38.2,34.1,30.42,ENE,72,0.0,0.0,85,0.00,,,0.00,Wunderground v.1.15,2013-04-27 08:54:00,
2013-04-27 04:59:00,38.1,34.0,30.42,ENE,72,0.0,0.0,85,0.00,,,0.00,Wunderground v.1.15,2013-04-27 08:59:00,
2013-04-27 05:04:00,38.1,34.0,30.42,ENE,72,0.0,0.0,85,0.00,,,0.00,Wunderground v.1.15,2013-04-27 09:04:00,
2013-04-27 05:09:00,38.0,33.9,30.42,ENE,72,0.0,0.0,85,0.00,,,0.00,Wunderground v.1.15,2013-04-27 09:09:00,
2013-04-27 05:14:00,38.0,33.9,30.42,ENE,72,0.0,0.0,85,0.00,,,0.00,Wunderground v.1.15,2013-04-27 09:14:00,
2013-04-27 05:19:00,37.9,33.8,30.42,ENE,72,0.0,0.0,85,0.00,,,0.00,Wunderground v.1.15,2013-04-27 09:19:00,
2013-04-27 05:24:00,37.9,33.8,30.42,ENE,72,0.0,1.0,85,0.00,,,0.00,Wunderground v.1.15,2013-04-27 09:24:00,
2013-04-27 05:29:00,37.9,33.8,30.42,ENE,72,0.0,1.0,85,0.00,,,0.00,Wunderground v.1.15,2013-04-27 09:29:00,
2013-04-27 05:34:00,37.9,33.8,30.43,ENE,72,0.0,0.0,85,0.00,,,0.00,Wunderground v.1.15,2013-04-27 09:34:00,
2013-04-27 05:39:00,37.8,33.7,30.43,ENE,72,0.0,0.0,85,0.00,,,0.00,Wunderground v.1.15,2013-04-27 09:39:00,
2013-04-27 05:44:00,37.8,33.7,30.43,ENE,72,0.0,0.0,85,0.00,,,0.00,Wunderground v.1.15,2013-04-27 09:44:00,
2013-04-27 05:49:00,37.7,33.6,30.43,ENE,72,0.0,0.0,85,0.00,,,0.00,Wunderground v.1.15,2013-04-27 09:49:00,
2013-04-27 05:54:00,37.6,33.5,30.43,ENE,72,0.0,0.0,85,0.00,,,0.00,Wunderground v.1.15,2013-04-27 09:54:00,
2013-04-27 05:59:00,37.5,33.4,30.43,ENE,72,0.0,0.0,85,0.00,,,0.00,Wunderground v.1.15,2013-04-27 09:59:00,
2013-04-27 06:04:00,37.5,33.7,30.43,ENE,72,0.0,0.0,86,0.00,,,0.00,Wunderground v.1.15,2013-04-27 10:04:00,
2013-04-27 06:09:00,37.4,33.6,30.43,ENE,72,0.0,0.0,86,0.00,,,0.00,Wunderground v.1.15,2013-04-27 10:09:00,
2013-04-27 06:14:00,37.5,33.7,30.43,ENE,72,0.0,0.0,86,0.00,,,0.00,Wunderground v.1.15,2013-04-27 10:14:00,
2013-04-27 06:19:00,37.6,33.8,30.43,ENE,72,0.0,0.0,86,0.00,,,0.00,Wunderground v.1.15,2013-04-27 10:19:00,
2013-04-27 06:24:00,37.8,34.0,30.43,ENE,72,0.0,0.0,86,0.00,,,0.00,Wunderground v.1.15,2013-04-27 10:24:00,
2013-04-27 06:29:00,38.0,34.2,30.43,ENE,72,0.0,1.0,86,0.00,,,0.00,Wunderground v.1.15,2013-04-27 10:29:00,
2013-04-27 06:34:00,38.4,34.6,30.43,ENE,72,2.0,2.0,86,0.00,,,0.00,Wunderground v.1.15,2013-04-27 10:34:00,
2013-04-27 06:39:00,38.8,35.0,30.43,ENE,72,0.0,2.0,86,0.00,,,0.00,Wunderground v.1.15,2013-04-27 10:39:00,
2013-04-27 06:44:00,39.4,35.3,30.43,ENE,72,1.0,2.0,85,0.00,,,0.00,Wunderground v.1.15,2013-04-27 10:44:00,
2013-04-27 06:49:00,40.1,36.0,30.43,ENE,72,0.0,2.0,85,0.00,,,0.00,Wunderground v.1.15,2013-04-27 10:49:00,
2013-04-27 06:54:00,40.9,36.1,30.43,ENE,72,0.0,2.0,83,0.00,,,0.00,Wunderground v.1.15,2013-04-27 10:54:00,
2013-04-27 06:59:00,41.5,36.4,30.43,ENE,72,0.0,2.0,82,0.00,,,0.00,Wunderground v.1.15,2013-04-27 10:59:00,
2013-04-27 07:04:00,42.1,36.4,30.43,ENE,72,0.0,1.0,80,0.00,,,0.00,Wunderground v.1.15,2013-04-27 11:04:00,
2013-04-27 07:09:00,42.6,36.5,30.43,ENE,72,0.0,1.0,79,0.00,,,0.00,Wunderground v.1.15,2013-04-27 11:09:00,
2013-04-27 07:14:00,42.7,36.0,30.43,ENE,72,0.0,2.0,77,0.00,,,0.00,Wunderground v.1.15,2013-04-27 11:14:00,
2013-04-27 07:19:00,42.4,35.7,30.43,ENE,72,0.0,3.0,77,0.00,,,0.00,Wunderground v.1.15,2013-04-27 11:19:00,
2013-04-27 07:24:00,42.5,35.8,30.43,ENE,72,0.0,2.0,77,0.00,,,0.00,Wunderground v.1.15,2013-04-27 11:24:00,
2013-04-27 07:29:00,43.1,36.0,30.43,ENE,72,0.0,3.0,76,0.00,,,0.00,Wunderground v.1.15,2013-04-27 11:29:00,
2013-04-27 07:34:00,43.6,36.5,30.43,NE,34,1.0,1.0,76,0.00,,,0.00,Wunderground v.1.15,2013-04-27 11:34:00,
2013-04-27 07:39:00,44.4,37.0,30.43,WNW,296,0.0,3.0,75,0.00,,,0.00,Wunderground v.1.15,2013-04-27 11:39:00,
2013-04-27 07:44:00,45.4,37.6,30.43,WNW,297,0.0,1.0,74,0.00,,,0.00,Wunderground v.1.15,2013-04-27 11:44:00,
2013-04-27 07:49:00,46.7,37.8,30.43,WNW,297,0.0,1.0,71,0.00,,,0.00,Wunderground v.1.15,2013-04-27 11:49:00,
2013-04-27 07:54:00,47.9,37.8,30.44,WNW,297,0.0,2.0,68,0.00,,,0.00,Wunderground v.1.15,2013-04-27 11:54:00,
2013-04-27 07:59:00,48.1,36.9,30.44,WNW,297,0.0,2.0,65,0.00,,,0.00,Wunderground v.1.15,2013-04-27 11:59:00,
2013-04-27 08:04:00,47.3,36.1,30.43,North,355,1.0,4.0,65,0.00,,,0.00,Wunderground v.1.15,2013-04-27 12:04:00,
2013-04-27 08:09:00,46.7,35.9,30.43,North,355,0.0,4.0,66,0.00,,,0.00,Wunderground v.1.15,2013-04-27 12:09:00,
2013-04-27 08:14:00,47.1,36.3,30.43,North,355,2.0,3.0,66,0.00,,,0.00,Wunderground v.1.15,2013-04-27 12:14:00,
2013-04-27 08:19:00,47.4,36.6,30.43,North,355,0.0,3.0,66,0.00,,,0.00,Wunderground v.1.15,2013-04-27 12:19:00,
2013-04-27 08:24:00,48.3,37.1,30.43,NNW,337,1.0,4.0,65,0.00,,,0.00,Wunderground v.1.15,2013-04-27 12:24:00,
2013-04-27 08:29:00,49.9,37.8,30.43,NNW,337,0.0,4.0,63,0.00,,,0.00,Wunderground v.1.15,2013-04-27 12:29:00,
2013-04-27 08:34:00,50.8,37.4,30.43,NNW,337,2.0,3.0,60,0.00,,,0.00,Wunderground v.1.15,2013-04-27 12:34:00,
2013-04-27 08:39:00,50.8,37.4,30.43,NNW,337,0.0,3.0,60,0.00,,,0.00,Wunderground v.1.15,2013-04-27 12:39:00,
2013-04-27 08:44:00,51.1,37.7,30.43,NNW,337,0.0,3.0,60,0.00,,,0.00,Wunderground v.1.15,2013-04-27 12:44:00,
2013-04-27 08:49:00,51.6,38.6,30.43,NNW,337,3.0,3.0,61,0.00,,,0.00,Wunderground v.1.15,2013-04-27 12:49:00,
2013-04-27 08:54:00,51.6,37.7,30.43,NNE,33,0.0,5.0,59,0.00,,,0.00,Wunderground v.1.15,2013-04-27 12:54:00,
2013-04-27 08:59:00,52.0,39.0,30.43,NE,34,2.0,5.0,61,0.00,,,0.00,Wunderground v.1.15,2013-04-27 12:59:00,
2013-04-27 09:04:00,51.9,38.4,30.43,NNE,32,1.0,5.0,60,0.00,,,0.00,Wunderground v.1.15,2013-04-27 13:04:00,
2013-04-27 09:09:00,51.9,38.0,30.43,NNE,32,2.0,5.0,59,0.00,,,0.00,Wunderground v.1.15,2013-04-27 13:09:00,
2013-04-27 09:14:00,52.1,38.6,30.43,NNE,32,1.0,5.0,60,0.00,,,0.00,Wunderground v.1.15,2013-04-27 13:14:00,
2013-04-27 09:19:00,52.6,39.1,30.43,NNE,32,1.0,5.0,60,0.00,,,0.00,Wunderground v.1.15,2013-04-27 13:19:00,
2013-04-27 09:24:00,53.3,38.4,30.43,NE,49,3.0,5.0,57,0.00,,,0.00,Wunderground v.1.15,2013-04-27 13:24:00,
2013-04-27 09:29:00,53.4,37.6,30.43,NNE,25,1.0,6.0,55,0.00,,,0.00,Wunderground v.1.15,2013-04-27 13:29:00,
2013-04-27 09:35:00,54.1,38.3,30.42,NE,46,3.0,4.0,55,0.00,,,0.00,Wunderground v.1.15,2013-04-27 13:35:00,
2013-04-27 09:40:00,54.2,37.4,30.43,NE,41,0.0,3.0,53,0.00,,,0.00,Wunderground v.1.15,2013-04-27 13:40:00,
2013-04-27 09:48:00,54.4,38.1,30.43,NE,41,3.0,4.0,54,0.00,,,0.00,Wunderground v.1.15,2013-04-27 13:48:00,
2013-04-27 09:53:00,55.1,38.7,30.43,NE,41,1.0,2.0,54,0.00,,,0.00,Wunderground v.1.15,2013-04-27 13:53:00,
2013-04-27 09:58:00,55.8,38.4,30.42,NNE,32,4.0,5.0,52,0.00,,,0.00,Wunderground v.1.15,2013-04-27 13:58:00,
2013-04-27 10:03:00,55.8,36.9,30.42,NNE,24,3.0,5.0,49,0.00,,,0.00,Wunderground v.1.15,2013-04-27 14:03:00,
2013-04-27 10:08:00,56.1,37.7,30.42,NNE,24,0.0,5.0,50,0.00,,,0.00,Wunderground v.1.15,2013-04-27 14:08:00,
2013-04-27 10:13:00,57.2,38.2,30.42,North,351,1.0,4.0,49,0.00,,,0.00,Wunderground v.1.15,2013-04-27 14:13:00,
2013-04-27 10:18:00,57.8,37.7,30.42,NNW,333,5.0,6.0,47,0.00,,,0.00,Wunderground v.1.15,2013-04-27 14:18:00,
2013-04-27 10:23:00,58.3,38.1,30.42,NNW,333,1.0,4.0,47,0.00,,,0.00,Wunderground v.1.15,2013-04-27 14:23:00,
2013-04-27 10:28:00,59.0,38.8,30.42,NNW,333,2.0,4.0,47,0.00,,,0.00,Wunderground v.1.15,2013-04-27 14:28:00,
2013-04-27 10:33:00,59.0,38.2,30.42,SSE,154,4.0,4.0,46,0.00,,,0.00,Wunderground v.1.15,2013-04-27 14:33:00,
2013-04-27 10:38:00,59.3,38.5,30.42,ENE,74,3.0,6.0,46,0.00,,,0.00,Wunderground v.1.15,2013-04-27 14:38:00,
2013-04-27 10:43:00,58.9,38.1,30.42,SSE,163,3.0,4.0,46,0.00,,,0.00,Wunderground v.1.15,2013-04-27 14:43:00,
2013-04-27 10:48:00,58.4,38.2,30.42,NNE,18,1.0,6.0,47,0.00,,,0.00,Wunderground v.1.15,2013-04-27 14:48:00,
2013-04-27 10:53:00,58.7,38.0,30.42,ESE,109,0.0,3.0,46,0.00,,,0.00,Wunderground v.1.15,2013-04-27 14:53:00,
2013-04-27 10:58:00,58.7,38.5,30.42,ESE,104,0.0,3.0,47,0.00,,,0.00,Wunderground v.1.15,2013-04-27 14:58:00,
2013-04-27 11:03:00,59.0,38.2,30.42,ESE,104,0.0,1.0,46,0.00,,,0.00,Wunderground v.1.15,2013-04-27 15:03:00,
2013-04-27 11:08:00,59.0,38.8,30.42,NW,304,3.0,4.0,47,0.00,,,0.00,Wunderground v.1.15,2013-04-27 15:08:00,
2013-04-27 11:13:00,59.2,38.4,30.42,WNW,288,0.0,4.0,46,0.00,,,0.00,Wunderground v.1.15,2013-04-27 15:13:00,
2013-04-27 11:18:00,59.6,38.2,30.42,NNW,344,0.0,6.0,45,0.00,,,0.00,Wunderground v.1.15,2013-04-27 15:18:00,
2013-04-27 11:23:00,59.8,38.4,30.42,ENE,74,2.0,2.0,45,0.00,,,0.00,Wunderground v.1.15,2013-04-27 15:23:00,
2013-04-27 11:28:00,59.9,38.5,30.41,ESE,120,0.0,4.0,45,0.00,,,0.00,Wunderground v.1.15,2013-04-27 15:28:00,
2013-04-27 11:33:00,59.7,38.9,30.41,South,172,0.0,5.0,46,0.00,,,0.00,Wunderground v.1.15,2013-04-27 15:33:00,
2013-04-27 11:38:00,59.9,38.5,30.41,ESE,113,0.0,5.0,45,0.00,,,0.00,Wunderground v.1.15,2013-04-27 15:38:00,
2013-04-27 11:43:00,60.0,39.1,30.41,ESE,103,1.0,3.0,46,0.00,,,0.00,Wunderground v.1.15,2013-04-27 15:43:00,
2013-04-27 11:48:00,60.1,38.7,30.41,NW,310,0.0,12.0,45,0.00,,,0.00,Wunderground v.1.15,2013-04-27 15:48:00,
2013-04-27 11:53:00,60.7,39.2,30.41,WNW,297,2.0,5.0,45,0.00,,,0.00,Wunderground v.1.15,2013-04-27 15:53:00,
2013-04-27 11:58:00,61.0,39.5,30.41,NW,306,0.0,5.0,45,0.00,,,0.00,Wunderground v.1.15,2013-04-27 15:58:00,
2013-04-27 12:03:00,61.2,40.2,30.40,NE,52,6.0,6.0,46,0.00,,,0.00,Wunderground v.1.15,2013-04-27 16:03:00,
2013-04-27 12:08:00,60.9,39.4,30.40,ENE,61,8.0,8.0,45,0.00,,,0.00,Wunderground v.1.15,2013-04-27 16:08:00,
2013-04-27 12:13:00,60.5,38.5,30.40,ENE,78,0.0,10.0,44,0.00,,,0.00,Wunderground v.1.15,2013-04-27 16:13:00,
2013-04-27 12:18:00,61.0,39.5,30.40,WNW,303,0.0,10.0,45,0.00,,,0.00,Wunderground v.1.15,2013-04-27 16:18:00,
2013-04-27 12:23:00,61.6,39.5,30.40,SW,215,1.0,5.0,44,0.00,,,0.00,Wunderground v.1.15,2013-04-27 16:23:00,
2013-04-27 12:28:00,61.2,38.5,30.40,SW,223,1.0,5.0,43,0.00,,,0.00,Wunderground v.1.15,2013-04-27 16:28:00,
2013-04-27 12:33:00,61.0,38.3,30.39,WSW,244,0.0,4.0,43,0.00,,,0.00,Wunderground v.1.15,2013-04-27 16:33:00,
2013-04-27 12:38:00,61.1,38.4,30.39,WSW,238,0.0,4.0,43,0.00,,,0.00,Wunderground v.1.15,2013-04-27 16:38:00,
2013-04-27 12:43:00,61.7,38.4,30.39,SW,233,4.0,6.0,42,0.00,,,0.00,Wunderground v.1.15,2013-04-27 16:43:00,
2013-04-27 12:48:00,62.1,38.7,30.38,WNW,286,4.0,7.0,42,0.00,,,0.00,Wunderground v.1.15,2013-04-27 16:48:00,
2013-04-27 12:53:00,62.3,38.9,30.38,East,84,6.0,9.0,42,0.00,,,0.00,Wunderground v.1.15,2013-04-27 16:53:00,
2013-04-27 12:59:00,61.5,38.2,30.38,North,9,2.0,9.0,42,0.00,,,0.00,Wunderground v.1.15,2013-04-27 16:59:00,
2013-04-27 13:04:00,62.0,40.4,30.38,NNE,22,3.0,4.0,45,0.00,,,0.00,Wunderground v.1.15,2013-04-27 17:04:00,
2013-04-27 13:09:00,62.1,38.7,30.37,East,82,6.0,12.0,42,0.00,,,0.00,Wunderground v.1.15,2013-04-27 17:09:00,
2013-04-27 13:14:00,61.5,38.8,30.37,NE,51,3.0,5.0,43,0.00,,,0.00,Wunderground v.1.15,2013-04-27 17:14:00,
2013-04-27 13:19:00,61.4,39.9,30.37,East,94,0.0,5.0,45,0.00,,,0.00,Wunderground v.1.15,2013-04-27 17:19:00,
2013-04-27 13:24:00,62.3,39.5,30.37,SE,135,6.0,7.0,43,0.00,,,0.00,Wunderground v.1.15,2013-04-27 17:24:00,
2013-04-27 13:29:00,62.3,37.0,30.37,South,188,0.0,7.0,39,0.00,,,0.00,Wunderground v.1.15,2013-04-27 17:29:00,
2013-04-27 13:34:00,62.2,38.2,30.37,SSW,210,0.0,5.0,41,0.00,,,0.00,Wunderground v.1.15,2013-04-27 17:34:00,
2013-04-27 13:39:00,62.3,37.7,30.36,South,182,3.0,9.0,40,0.00,,,0.00,Wunderground v.1.15,2013-04-27 17:39:00,
2013-04-27 13:44:00,61.9,37.3,30.36,East,81,4.0,7.0,40,0.00,,,0.00,Wunderground v.1.15,2013-04-27 17:44:00,
2013-04-27 13:49:00,61.9,38.5,30.36,SSE,167,4.0,7.0,42,0.00,,,0.00,Wunderground v.1.15,2013-04-27 17:49:00,
2013-04-27 13:54:00,62.2,38.2,30.36,WSW,248,6.0,8.0,41,0.00,,,0.00,Wunderground v.1.15,2013-04-27 17:54:00,
2013-04-27 13:59:00,63.0,37.0,30.36,WSW,248,0.0,8.0,38,0.00,,,0.00,Wunderground v.1.15,2013-04-27 17:59:00,
2013-04-27 14:04:00,63.0,37.6,30.36,WSW,252,2.0,3.0,39,0.00,,,0.00,Wunderground v.1.15,2013-04-27 18:04:00,
2013-04-27 14:09:00,63.1,38.4,30.35,NE,40,5.0,7.0,40,0.00,,,0.00,Wunderground v.1.15,2013-04-27 18:09:00,
2013-04-27 14:14:00,63.4,38.6,30.35,SSE,162,1.0,5.0,40,0.00,,,0.00,Wunderground v.1.15,2013-04-27 18:14:00,
2013-04-27 14:19:00,64.0,38.5,30.35,SE,132,0.0,6.0,39,0.00,,,0.00,Wunderground v.1.15,2013-04-27 18:19:00,
2013-04-27 14:24:00,64.2,38.7,30.35,ENE,60,0.0,5.0,39,0.00,,,0.00,Wunderground v.1.15,2013-04-27 18:24:00,
2013-04-27 14:29:00,64.4,38.2,30.34,NE,53,0.0,5.0,38,0.00,,,0.00,Wunderground v.1.15,2013-04-27 18:29:00,
2013-04-27 14:34:00,64.8,39.2,30.34,SSE,162,4.0,4.0,39,0.00,,,0.00,Wunderground v.1.15,2013-04-27 18:34:00,
2013-04-27 14:39:00,64.2,37.4,30.34,SSW,207,7.0,8.0,37,0.00,,,0.00,Wunderground v.1.15,2013-04-27 18:39:00,
2013-04-27 14:44:00,64.3,41.3,30.34,SW,230,0.0,6.0,43,0.00,,,0.00,Wunderground v.1.15,2013-04-27 18:44:00,
2013-04-27 14:49:00,65.2,38.3,30.34,WNW,289,0.0,9.0,37,0.00,,,0.00,Wunderground v.1.15,2013-04-27 18:49:00,
2013-04-27 14:54:00,65.4,38.4,30.33,East,95,5.0,5.0,37,0.00,,,0.00,Wunderground v.1.15,2013-04-27 18:54:00,
2013-04-27 14:59:00,65.0,38.1,30.33,East,79,4.0,8.0,37,0.00,,,0.00,Wunderground v.1.15,2013-04-27 18:59:00,
2013-04-27 15:04:00,64.6,41.0,30.33,East,80,1.0,5.0,42,0.00,,,0.00,Wunderground v.1.15,2013-04-27 19:04:00,
2013-04-27 15:09:00,64.3,38.1,30.33,SSE,167,0.0,5.0,38,0.00,,,0.00,Wunderground v.1.15,2013-04-27 19:09:00,
2013-04-27 15:14:00,64.3,37.5,30.33,SSW,195,0.0,5.0,37,0.00,,,0.00,Wunderground v.1.15,2013-04-27 19:14:00,
2013-04-27 15:19:00,64.8,37.9,30.33,ENE,68,2.0,5.0,37,0.00,,,0.00,Wunderground v.1.15,2013-04-27 19:19:00,
2013-04-27 15:24:00,64.9,38.0,30.32,East,86,7.0,9.0,37,0.00,,,0.00,Wunderground v.1.15,2013-04-27 19:24:00,
2013-04-27 15:29:00,64.2,37.4,30.32,ESE,109,4.0,9.0,37,0.00,,,0.00,Wunderground v.1.15,2013-04-27 19:29:00,
2013-04-27 15:34:00,64.0,37.9,30.32,ENE,71,3.0,5.0,38,0.00,,,0.00,Wunderground v.1.15,2013-04-27 19:34:00,
2013-04-27 15:39:00,63.9,37.1,30.32,NNE,32,4.0,7.0,37,0.00,,,0.00,Wunderground v.1.15,2013-04-27 19:39:00,
2013-04-27 15:44:00,63.9,39.1,30.31,NE,46,5.0,9.0,40,0.00,,,0.00,Wunderground v.1.15,2013-04-27 19:44:00,
2013-04-27 15:49:00,64.3,37.5,30.31,East,82,4.0,9.0,37,0.00,,,0.00,Wunderground v.1.15,2013-04-27 19:49:00,
2013-04-27 15:54:00,64.9,38.7,30.31,East,86,6.0,9.0,38,0.00,,,0.00,Wunderground v.1.15,2013-04-27 19:54:00,
2013-04-27 15:59:00,65.0,38.1,30.31,ESE,113,4.0,10.0,37,0.00,,,0.00,Wunderground v.1.15,2013-04-27 19:59:00,
2013-04-27 16:04:00,64.8,37.9,30.30,ENE,71,4.0,7.0,37,0.00,,,0.00,Wunderground v.1.15,2013-04-27 20:04:00,
2013-04-27 16:09:00,65.0,38.1,30.30,SE,124,5.0,12.0,37,0.00,,,0.00,Wunderground v.1.15,2013-04-27 20:09:00,
2013-04-27 16:14:00,64.8,38.6,30.30,SSE,164,5.0,7.0,38,0.00,,,0.00,Wunderground v.1.15,2013-04-27 20:14:00,
2013-04-27 16:19:00,64.9,37.3,30.30,SE,126,2.0,7.0,36,0.00,,,0.00,Wunderground v.1.15,2013-04-27 20:19:00,
2013-04-27 16:24:00,64.7,37.1,30.30,ESE,110,3.0,8.0,36,0.00,,,0.00,Wunderground v.1.15,2013-04-27 20:24:00,
2013-04-27 16:29:00,64.5,36.9,30.30,NE,34,2.0,8.0,36,0.00,,,0.00,Wunderground v.1.15,2013-04-27 20:29:00,
2013-04-27 16:34:00,64.4,37.5,30.30,SE,138,3.0,6.0,37,0.00,,,0.00,Wunderground v.1.15,2013-04-27 20:34:00,
2013-04-27 16:39:00,64.6,39.1,30.30,ESE,117,2.0,6.0,39,0.00,,,0.00,Wunderground v.1.15,2013-04-27 20:39:00,
2013-04-27 16:44:00,64.6,37.0,30.30,ESE,121,0.0,7.0,36,0.00,,,0.00,Wunderground v.1.15,2013-04-27 20:44:00,
2013-04-27 16:49:00,64.8,37.2,30.29,East,101,3.0,7.0,36,0.00,,,0.00,Wunderground v.1.15,2013-04-27 20:49:00,
2013-04-27 16:54:00,64.7,37.8,30.30,SSE,150,2.0,3.0,37,0.00,,,0.00,Wunderground v.1.15,2013-04-27 20:54:00,
2013-04-27 16:59:00,64.5,36.9,30.29,SSW,196,2.0,6.0,36,0.00,,,0.00,Wunderground v.1.15,2013-04-27 20:59:00,
2013-04-27 17:04:00,64.4,36.8,30.29,WSW,244,3.0,7.0,36,0.00,,,0.00,Wunderground v.1.15,2013-04-27 21:04:00,
2013-04-27 17:09:00,64.0,36.5,30.29,South,175,0.0,7.0,36,0.00,,,0.00,Wunderground v.1.15,2013-04-27 21:09:00,
2013-04-27 17:14:00,63.8,36.3,30.29,South,191,0.0,6.0,36,0.00,,,0.00,Wunderground v.1.15,2013-04-27 21:14:00,
2013-04-27 17:20:00,63.7,38.3,30.29,South,186,0.0,2.0,39,0.00,,,0.00,Wunderground v.1.15,2013-04-27 21:20:00,
2013-04-27 17:25:00,63.8,37.7,30.29,South,186,1.0,2.0,38,0.00,,,0.00,Wunderground v.1.15,2013-04-27 21:25:00,
2013-04-27 17:30:00,63.8,36.3,30.29,South,186,0.0,0.0,36,0.00,,,0.00,Wunderground v.1.15,2013-04-27 21:30:00,
2013-04-27 17:35:00,64.2,37.4,30.29,South,186,0.0,1.0,37,0.00,,,0.00,Wunderground v.1.15,2013-04-27 21:35:00,
2013-04-27 17:40:00,64.6,37.7,30.29,South,186,0.0,0.0,37,0.00,,,0.00,Wunderground v.1.15,2013-04-27 21:40:00,
2013-04-27 17:45:00,64.8,37.9,30.29,SSE,157,2.0,3.0,37,0.00,,,0.00,Wunderground v.1.15,2013-04-27 21:45:00,
2013-04-27 17:50:00,64.2,38.7,30.29,SSE,159,7.0,7.0,39,0.00,,,0.00,Wunderground v.1.15,2013-04-27 21:50:00,
2013-04-27 17:55:00,63.4,37.3,30.29,South,172,9.0,12.0,38,0.00,,,0.00,Wunderground v.1.15,2013-04-27 21:55:00,
2013-04-27 18:00:00,62.6,37.9,30.29,SSE,150,7.0,7.0,40,0.00,,,0.00,Wunderground v.1.15,2013-04-27 22:00:00,
2013-04-27 18:05:00,62.3,37.7,30.29,SE,125,6.0,9.0,40,0.00,,,0.00,Wunderground v.1.15,2013-04-27 22:05:00,
2013-04-27 18:10:00,62.2,37.6,30.29,SE,127,2.0,4.0,40,0.00,,,0.00,Wunderground v.1.15,2013-04-27 22:10:00,
2013-04-27 18:15:00,61.9,37.9,30.29,SE,144,2.0,10.0,41,0.00,,,0.00,Wunderground v.1.15,2013-04-27 22:15:00,
2013-04-27 18:20:00,61.7,37.1,30.29,SE,138,4.0,5.0,40,0.00,,,0.00,Wunderground v.1.15,2013-04-27 22:20:00,
2013-04-27 18:25:00,61.3,37.4,30.29,ESE,107,9.0,13.0,41,0.00,,,0.00,Wunderground v.1.15,2013-04-27 22:25:00,
2013-04-27 18:30:00,60.9,37.6,30.30,ESE,122,7.0,7.0,42,0.00,,,0.00,Wunderground v.1.15,2013-04-27 22:30:00,
2013-04-27 18:35:00,60.6,36.8,30.30,SSE,164,5.0,11.0,41,0.00,,,0.00,Wunderground v.1.15,2013-04-27 22:35:00,
2013-04-27 18:40:00,60.3,37.1,30.29,SE,138,2.0,4.0,42,0.00,,,0.00,Wunderground v.1.15,2013-04-27 22:40:00,
2013-04-27 18:45:00,60.1,36.3,30.29,SE,141,0.0,12.0,41,0.00,,,0.00,Wunderground v.1.15,2013-04-27 22:45:00,
2013-04-27 18:50:00,59.8,36.6,30.30,ESE,121,4.0,7.0,42,0.00,,,0.00,Wunderground v.1.15,2013-04-27 22:50:00,
2013-04-27 18:55:00,59.2,36.1,30.30,ESE,121,7.0,10.0,42,0.00,,,0.00,Wunderground v.1.15,2013-04-27 22:55:00,
2013-04-27 19:00:00,59.0,35.9,30.30,SE,139,5.0,5.0,42,0.00,,,0.00,Wunderground v.1.15,2013-04-27 23:00:00,
2013-04-27 19:05:00,58.7,36.2,30.30,SSE,163,4.0,6.0,43,0.00,,,0.00,Wunderground v.1.15,2013-04-27 23:05:00,
2013-04-27 19:10:00,58.5,36.1,30.30,SSE,147,1.0,3.0,43,0.00,,,0.00,Wunderground v.1.15,2013-04-27 23:10:00,
2013-04-27 19:15:00,58.3,35.9,30.30,SSE,150,0.0,9.0,43,0.00,,,0.00,Wunderground v.1.15,2013-04-27 23:15:00,
2013-04-27 19:20:00,58.1,36.3,30.30,South,179,4.0,4.0,44,0.00,,,0.00,Wunderground v.1.15,2013-04-27 23:20:00,
2013-04-27 19:25:00,57.8,36.0,30.30,SE,132,0.0,7.0,44,0.00,,,0.00,Wunderground v.1.15,2013-04-27 23:25:00,
2013-04-27 19:30:00,57.6,35.8,30.30,SE,140,2.0,3.0,44,0.00,,,0.00,Wunderground v.1.15,2013-04-27 23:30:00,
2013-04-27 19:35:00,57.5,35.7,30.30,SE,144,7.0,10.0,44,0.00,,,0.00,Wunderground v.1.15,2013-04-27 23:35:00,
2013-04-27 19:40:00,57.3,35.6,30.30,South,172,2.0,4.0,44,0.00,,,0.00,Wunderground v.1.15,2013-04-27 23:40:00,
2013-04-27 19:45:00,57.0,35.9,30.30,SE,134,1.0,6.0,45,0.00,,,0.00,Wunderground v.1.15,2013-04-27 23:45:00,
2013-04-27 19:50:00,56.7,35.6,30.30,SE,143,0.0,2.0,45,0.00,,,0.00,Wunderground v.1.15,2013-04-27 23:50:00,
2013-04-27 19:55:00,56.6,35.5,30.30,SE,146,1.0,7.0,45,0.00,,,0.00,Wunderground v.1.15,2013-04-27 23:55:00,
2013-04-27 20:00:00,56.4,35.3,30.30,ESE,117,4.0,4.0,45,0.00,,,0.00,Wunderground v.1.15,2013-04-28 00:00:00,
2013-04-27 20:05:00,56.3,35.2,30.30,SE,132,4.0,5.0,45,0.00,,,0.00,Wunderground v.1.15,2013-04-28 00:05:00,
2013-04-27 20:10:00,56.1,35.6,30.30,SE,129,4.0,4.0,46,0.00,,,0.00,Wunderground v.1.15,2013-04-28 00:10:00,
2013-04-27 20:15:00,55.8,35.9,30.31,SSE,153,0.0,7.0,47,0.00,,,0.00,Wunderground v.1.15,2013-04-28 00:15:00,
2013-04-27 20:20:00,55.6,35.7,30.31,SSE,165,0.0,4.0,47,0.00,,,0.00,Wunderground v.1.15,2013-04-28 00:20:00,
2013-04-27 20:25:00,55.5,35.6,30.31,SSE,150,0.0,7.0,47,0.00,,,0.00,Wunderground v.1.15,2013-04-28 00:25:00,
2013-04-27 20:30:00,55.3,35.9,30.31,SSE,162,0.0,2.0,48,0.00,,,0.00,Wunderground v.1.15,2013-04-28 00:30:00,
2013-04-27 20:35:00,55.1,35.7,30.31,SSE,162,3.0,3.0,48,0.00,,,0.00,Wunderground v.1.15,2013-04-28 00:35:00,
2013-04-27 20:40:00,54.8,36.0,30.31,SE,132,0.0,2.0,49,0.00,,,0.00,Wunderground v.1.15,2013-04-28 00:40:00,
2013-04-27 20:45:00,54.6,35.8,30.32,South,169,2.0,3.0,49,0.00,,,0.00,Wunderground v.1.15,2013-04-28 00:45:00,
2013-04-27 20:50:00,54.6,36.3,30.31,South,175,1.0,1.0,50,0.00,,,0.00,Wunderground v.1.15,2013-04-28 00:50:00,
2013-04-27 20:55:00,54.6,36.3,30.32,SSE,152,0.0,4.0,50,0.00,,,0.00,Wunderground v.1.15,2013-04-28 00:55:00,
2013-04-27 21:00:00,54.5,36.2,30.32,SSE,152,0.0,1.0,50,0.00,,,0.00,Wunderground v.1.15,2013-04-28 01:00:00,
2013-04-27 21:05:00,54.2,35.9,30.32,SSE,165,3.0,4.0,50,0.00,,,0.00,Wunderground v.1.15,2013-04-28 01:05:00,
2013-04-27 21:10:00,54.2,35.9,30.32,SSE,165,0.0,1.0,50,0.00,,,0.00,Wunderground v.1.15,2013-04-28 01:10:00,
2013-04-27 21:15:00,54.0,35.8,30.32,SSE,165,0.0,1.0,50,0.00,,,0.00,Wunderground v.1.15,2013-04-28 01:15:00,
2013-04-27 21:20:00,53.9,35.7,30.33,SSE,164,0.0,0.0,50,0.00,,,0.00,Wunderground v.1.15,2013-04-28 01:20:00,
2013-04-27 21:25:00,53.6,35.9,30.33,SSE,164,0.0,1.0,51,0.00,,,0.00,Wunderground v.1.15,2013-04-28 01:25:00,
2013-04-27 21:30:00,53.5,35.8,30.33,SSE,165,0.0,0.0,51,0.00,,,0.00,Wunderground v.1.15,2013-04-28 01:30:00,
2013-04-27 21:35:00,53.3,35.6,30.33,SSE,165,0.0,1.0,51,0.00,,,0.00,Wunderground v.1.15,2013-04-28 01:35:00,
2013-04-27 21:40:00,53.1,35.4,30.33,SSE,164,0.0,3.0,51,0.00,,,0.00,Wunderground v.1.15,2013-04-28 01:40:00,
2013-04-27 21:45:00,52.9,35.7,30.33,SSE,165,0.0,4.0,52,0.00,,,0.00,Wunderground v.1.15,2013-04-28 01:45:00,
2013-04-27 21:50:00,52.7,35.6,30.33,SSE,165,0.0,4.0,52,0.00,,,0.00,Wunderground v.1.15,2013-04-28 01:50:00,
2013-04-27 21:55:00,52.6,35.5,30.33,SSE,165,0.0,4.0,52,0.00,,,0.00,Wunderground v.1.15,2013-04-28 01:55:00,
2013-04-27 22:00:00,52.4,35.3,30.33,South,181,1.0,3.0,52,0.00,,,0.00,Wunderground v.1.15,2013-04-28 02:00:00,
2013-04-27 22:06:00,52.4,35.3,30.34,South,180,1.0,4.0,52,0.00,,,0.00,Wunderground v.1.15,2013-04-28 02:06:00,
2013-04-27 22:11:00,52.3,35.2,30.34,SW,221,0.0,4.0,52,0.00,,,0.00,Wunderground v.1.15,2013-04-28 02:11:00,
2013-04-27 22:16:00,52.3,35.2,30.33,SSW,194,0.0,9.0,52,0.00,,,0.00,Wunderground v.1.15,2013-04-28 02:16:00,
2013-04-27 22:21:00,52.2,35.1,30.34,South,183,3.0,4.0,52,0.00,,,0.00,Wunderground v.1.15,2013-04-28 02:21:00,
2013-04-27 22:26:00,52.0,34.9,30.34,South,183,0.0,4.0,52,0.00,,,0.00,Wunderground v.1.15,2013-04-28 02:26:00,
2013-04-27 22:31:00,51.8,35.2,30.34,SSW,212,0.0,3.0,53,0.00,,,0.00,Wunderground v.1.15,2013-04-28 02:31:00,
2013-04-27 22:36:00,51.6,35.0,30.34,SSW,211,4.0,5.0,53,0.00,,,0.00,Wunderground v.1.15,2013-04-28 02:36:00,
2013-04-27 22:41:00,51.4,35.3,30.34,SSW,211,0.0,1.0,54,0.00,,,0.00,Wunderground v.1.15,2013-04-28 02:41:00,
2013-04-27 22:46:00,51.0,35.4,30.34,SSW,211,0.0,3.0,55,0.00,,,0.00,Wunderground v.1.15,2013-04-28 02:46:00,
2013-04-27 22:51:00,50.8,35.2,30.34,SSW,211,0.0,3.0,55,0.00,,,0.00,Wunderground v.1.15,2013-04-28 02:51:00,
2013-04-27 22:56:00,50.6,35.5,30.34,SSW,202,1.0,4.0,56,0.00,,,0.00,Wunderground v.1.15,2013-04-28 02:56:00,
2013-04-27 23:01:00,50.4,35.3,30.34,SSW,202,0.0,2.0,56,0.00,,,0.00,Wunderground v.1.15,2013-04-28 03:01:00,
2013-04-27 23:06:00,50.3,35.2,30.34,SSW,202,0.0,2.0,56,0.00,,,0.00,Wunderground v.1.15,2013-04-28 03:06:00,
2013-04-27 23:11:00,50.1,35.4,30.34,SSW,202,0.0,0.0,57,0.00,,,0.00,Wunderground v.1.15,2013-04-28 03:11:00,
2013-04-27 23:16:00,49.9,35.3,30.34,SSW,202,0.0,1.0,57,0.00,,,0.00,Wunderground v.1.15,2013-04-28 03:16:00,
2013-04-27 23:21:00,49.7,35.5,30.34,SSW,202,0.0,0.0,58,0.00,,,0.00,Wunderground v.1.15,2013-04-28 03:21:00,
2013-04-27 23:26:00,49.4,35.7,30.34,SSW,202,0.0,2.0,59,0.00,,,0.00,Wunderground v.1.15,2013-04-28 03:26:00,
2013-04-27 23:31:00,49.2,35.5,30.34,SSW,202,0.0,2.0,59,0.00,,,0.00,Wunderground v.1.15,2013-04-28 03:31:00,
2013-04-27 23:36:00,49.1,35.8,30.34,SSW,202,0.0,2.0,60,0.00,,,0.00,Wunderground v.1.15,2013-04-28 03:36:00,
2013-04-27 23:41:00,48.8,35.5,30.34,SSW,202,0.0,0.0,60,0.00,,,0.00,Wunderground v.1.15,2013-04-28 03:41:00,
2013-04-27 23:46:00,48.7,35.8,30.34,SSW,202,0.0,1.0,61,0.00,,,0.00,Wunderground v.1.15,2013-04-28 03:46:00,
2013-04-27 23:51:00,48.5,35.7,30.34,SSW,202,1.0,1.0,61,0.00,,,0.00,Wunderground v.1.15,2013-04-28 03:51:00,
2013-04-27 23:56:00,48.4,35.6,30.34,SSW,202,0.0,2.0,61,0.00,,,0.00,Wunderground v.1.15,2013-04-28 03:56:00,